Tracking 20621 objects as of 31-Mar-2020
HD Live streaming from Space Station
objects crossing your sky now

OPS 1294 (DMSP 5D-2 F7)

Track OPS 1294 (DMSP 5D-2 F7) now!
10-day predictions
OPS 1294 (DMSP 5D-2 F7) is classified as:


NORAD ID: 14506
Int'l Code: 1983-113A
Perigee: 796.4 km
Apogee: 814.2 km
Inclination: 98.3 °
Period: 100.8 minutes
Semi major axis: 7176 km
RCS: 4.7791 m2 (large)
Launch date: November 18, 1983
Source: United States (US)
Launch site: AIR FORCE WESTERN TEST RANGE (AFWTR)
aabbcc
Your satellite tracking list
Your tracking list is empty




NASA's NSSDC Master Catalog

Two Line Element Set (TLE):
1 14506U 83113A   20090.89327492 +.00000021 +00000-0 +25153-4 0  9990
2 14506 098.3441 306.7844 0012440 094.5239 277.7443 14.28084216891460
Source of the keplerian elements: AFSPC